OpenBCM V1.07b12 (Linux)

Packet Radio Mailbox

SR8BBS

[OBCM_Lublin]

 Login: GUEST





  
I0OJJ  > KEPS     22.06.25 23:15z 343 Lines 16342 Bytes #6 (0) @ AMSAT
BID : ORB25173.1
Subj: 2Line Orbital Elements 25173.AMSAT
Path: SR8BBS<SR1BSZ<EA2RCF<I0OJJ
Sent: 250622/0025z @:I0OJJ.ITA.EU [Rome] obcm1.08-10-g596e
From: I0OJJ @ I0OJJ.ITA.EU (Gustavo)
To:   KEPS @ AMSAT
X-Info: This message was generated automatically


QST de W1STR

AMSAT Orbital Elements for Amateur Satellites in TLE Format
From Orbital Analysis Office
New England Sci-Tech STEM Education Center
Natick, MA June 22, 2025
To all radio amateurs


These element sets describe the orbits of various satellites 
in use by the amateur radio community. For details see:
www.amsat.org/keplerian-elements-formats/

A daily update of element sets is available at:
www.amsat.org/tle/daily-bulletin.txt
or without bulletin text:
www.amsat.org/tle/dailytle.txt


AO-07
1 07530U 74089B   25172.28541208 -.00000029  00000-0  10591-3 0  9991
2 07530 101.9927 176.6740 0012638  99.6170 272.3047 12.53689707315292
UO-11
1 14781U 84021B   25172.35796659  .00000893  00000-0  99714-4 0  9997
2 14781  97.7550 138.4938 0006457 304.9441  55.1170 14.89418793203399
AO-27
1 22825U 93061C   25172.59551307  .00000062  00000-0  40941-4 0  9990
2 22825  98.7360 234.2108 0009523  79.9095 280.3161 14.30803177655430
FO-29
1 24278U 96046B   25172.43361688 -.00000021  00000-0  17270-4 0  9999
2 24278  98.5747  64.7652 0349118 312.0348  45.1557 13.53249469424375
NOAA-15
1 25338U 98030A   25172.80161664  .00000192  00000-0  96580-4 0  9994
2 25338  98.5342 197.6382 0009500 329.8455  30.2178 14.26986082410147
GO-32
1 25397U 98043D   25172.84486312  .00000039  00000-0  36988-4 0  9993
2 25397  98.9707 152.2202 0001743 135.9692 224.1625 14.24317882400255
ISS
1 25544U 98067A   25172.77582696  .00011097  00000-0  20093-3 0  9992
2 25544  51.6361 284.3345 0002144 270.0300  90.0443 15.50170919515870
NO-44
1 26931U 01043C   25172.52132621  .00000082  00000-0  61819-4 0  9997
2 26931  67.0509  96.9655 0006110 276.4871  83.5535 14.31740019238971
SO-50
1 27607U 02058C   25172.36455756  .00001009  00000-0  14309-3 0  9995
2 27607  64.5512 164.1580 0057704 331.4409  28.3538 14.81652756210972
CO-55
1 27844U 03031E   25172.48422429  .00000239  00000-0  12324-3 0  9993
2 27844  98.6752 180.6038 0010292 146.7647 213.4180 14.24004912140336
CO-57
1 27848U 03031J   25170.96195212  .00000217  00000-0  11517-3 0  9994
2 27848  98.6781 179.0990 0009739 167.4525 192.6897 14.23337603139842
RS-22
1 27939U 03042A   25172.84791042  .00000761  00000-0  12860-3 0  9995
2 27939  98.3288 342.5961 0010832 337.3458 152.6467 14.72380327162633
CO-58
1 28895U 05043F   25172.35368833  .00001073  00000-0  18306-3 0  9992
2 28895  98.2511 316.8517 0013208 269.2519  90.7173 14.71048267 48671
CO-65
1 32785U 08021C   25172.90944543  .00003185  00000-0  23158-3 0  9990
2 32785  97.7859 144.1650 0010379 159.1767 200.9884 15.04536030931000
CO-66
1 32791U 08021J   25172.36471442  .00008236  00000-0  39731-3 0  9996
2 32791  97.7271 152.6700 0005571 116.4987 243.6818 15.18950101932289
RS-30
1 32953U 08025A   25172.79577199  .00000038  00000-0  20043-3 0  9991
2 32953  82.5019 219.5812 0019569  23.1914 337.0045 12.43165487775054
NOAA-19
1 33591U 09005A   25172.80473651  .00000145  00000-0  10140-3 0  9995
2 33591  98.9968 237.5777 0013123 333.3602  26.6894 14.13379832843832
SRMSAT
1 37841U 11058D   25172.89766896  .00000368  00000-0  56163-4 0  9996
2 37841  19.9724  80.0045 0011821 199.8246 220.8320 14.11439679707079
ZACUBE-1
1 39417U 13066B   25172.35268091  .00003782  00000-0  32952-3 0  9995
2 39417  97.7796 129.3027 0044354  15.2025 345.0517 14.96752793626675
Delfi-N3xt
1 39428U 13066N   25172.25832460  .00004947  00000-0  50450-3 0  9990
2 39428  97.8349  89.7788 0083574 323.2268  36.3233 14.88541110620818
GOMX-1
1 39430U 13066Q   25172.89436690  .00001461  00000-0  23252-3 0  9996
2 39430  97.6825  30.8026 0133018 152.4465 208.3875 14.67679652617213
LO-74
1 39440U 13066AA  25172.76587997  .00001902  00000-0  19596-3 0  9996
2 39440  97.8496 117.2420 0062953 138.7088 221.8915 14.89999894624451
AO-73
1 39444U 13066AE  25172.53509598  .00004413  00000-0  33111-3 0  9995
2 39444  97.7815 134.4974 0041725 349.2016  10.8309 15.02484456625383
DTUSAT-2
1 40030U 14033W   25172.36495276  .00003890  00000-0  25435-3 0  9999
2 40030  98.0547 144.7543 0009926  30.7813 329.3995 15.08398673598178
EO-80
1 40032U 14033Y   25172.38458037  .00004475  00000-0  29132-3 0  9995
2 40032  98.0435 144.4132 0007501 332.4503  27.6326 15.08486598598150
LILACSAT-2
1 40908U 15049K   25172.83284373  .00008897  00000-0  23094-3 0  9998
2 40908  97.5052 193.4757 0011052 113.6674 246.5733 15.39164276540119
IO-86
1 40931U 15052B   25151.18580175  .00001241  00000-0  78118-4 0  9996
2 40931   6.0006  24.0987 0012733 338.8432  21.1169 14.78805930523047
Horyu-4
1 41340U 16012D   25172.36036907  .00015704  00000-0  41216-3 0  9997
2 41340  30.9978  52.6856 0005866 187.1647 172.8915 15.37340119514604
Lapan A3
1 41603U 16040E   25172.86234295  .00002757  00000-0  97527-4 0  9996
2 41603  97.1365 176.9880 0009726 217.6347 142.4215 15.29934732499668
CAS-2T
1 41847U 16066G   25172.67426850  .00001412  00000-0  20784-3 0  9990
2 41847  98.4198 247.0313 0346899 141.7862 220.8476 14.43520045452764
CAS-4B
1 42759U 17034B   25172.66438117  .00051633  00000-0  50939-3 0  9992
2 42759  43.0062 249.7724 0020307  10.7895 349.3402 15.64866771444492
CAS-4A
1 42761U 17034D   25172.68731051  .00055949  00000-0  52183-3 0  9997
2 42761  43.0100 246.6543 0021432  15.7070 344.4457 15.66204285444521
TechnoSat
1 42829U 17042E   25172.43755819  .00001430  00000-0  11398-3 0  9991
2 42829  97.3865 340.5842 0014776 232.1276 127.8613 15.01760107432509
AO-91
1 43017U 17073E   25172.36317992  .00005702  00000-0  29053-3 0  9996
2 43017  97.5254  42.8381 0173863 126.1021 235.6445 15.04892979410981
S-Net D
1 43186U 18014G   25171.22077650  .00003954  00000-0  23442-3 0  9990
2 43186  97.5618  74.0189 0008975 177.8253 182.3018 15.11917435403985
S-Net B
1 43187U 18014H   25172.68235523  .00003593  00000-0  21342-3 0  9993
2 43187  97.5627  75.4381 0009934 169.0474 191.0975 15.11906154404200
S-Net A
1 43188U 18014J   25171.94913616  .00003820  00000-0  22656-3 0  9990
2 43188  97.5632  74.8638 0009743 172.1824 187.9560 15.11926819404098
S-Net C
1 43189U 18014K   25171.62584135  .00003440  00000-0  20450-3 0  9994
2 43189  97.5648  74.5599 0011435 167.1995 192.9528 15.11894691402598
Ten-Koh
1 43677U 18084G   25172.33171063  .00001516  00000-0  12508-3 0  9991
2 43677  98.0857 345.0530 0006254 211.7803 148.3043 15.00622333362004
PO-101
1 43678U 18084H   25172.80949315  .00001131  00000-0  10021-3 0  9998
2 43678  98.1028 349.4012 0007698 245.3120 114.7300 14.98374557362211
QO-100
1 43700U 18090A   25172.57858656  .00000154  00000-0  00000-0 0  9999
2 43700   0.0139  53.4187 0002204  76.5447  14.1368  1.00272621 24064
MinXSS-2
1 43758U 18099A   25171.15057310  .00011305  00000-0  44096-3 0  9998
2 43758  97.5018 237.2209 0013178 117.6392 242.6186 15.26019606358587
AO-95
1 43770U 18099N   25172.12358425  .00006625  00000-0  33415-3 0  9993
2 43770  97.4911 230.0818 0011284 164.5030 195.6551 15.17413866358304
RANGE-A
1 43773U 18099R   25172.53550523  .00003305  00000-0  21155-3 0  9994
2 43773  97.4480 220.5905 0012397 144.5652 215.6403 15.09187120358023
MOVE-II
1 43780U 18099Y   25172.81438619  .00357187  00000-0  15374-2 0  9999
2 43780  97.4638 249.4570 0005508 211.5370 148.5570 15.84092525359737
SNUSat 2
1 43782U 18099AA  25172.56371499  .00005718  00000-0  31106-3 0  9997
2 43782  97.4593 227.1708 0013646 111.2675 249.0016 15.14770632358311
SnugLite
1 43784U 18099AC  25172.41502844  .00006055  00000-0  30307-3 0  9990
2 43784  97.4406 226.6093 0005152 110.2835 249.8953 15.17757513358434
ITASat 1
1 43786U 18099AE  25172.11961399  .00004243  00000-0  24301-3 0  9997
2 43786  97.4559 226.2114 0015023 160.7804 199.3997 15.13057981358209
EAGLET 1
1 43790U 18099AJ  25172.08780755  .00003391  00000-0  21721-3 0  9999
2 43790  97.4759 226.0992 0013076 144.4679 215.7424 15.09141886357809
ESEO
1 43792U 18099AL  25172.72119235  .00001095  00000-0  86281-4 0  9993
2 43792  97.4482 219.8191 0015111 117.0900 243.1870 15.02663970357648
CSIM
1 43793U 18099AM  25172.19218130  .00064113  00000-0  37492-3 0  9998
2 43793  97.4787 251.0068 0005368 160.7865 199.3604 15.78165217359470
JO-97
1 43803U 18099AX  25172.16355271  .00007810  00000-0  35417-3 0  9991
2 43803  97.4659 231.1370 0009176 104.8651 255.3601 15.21066681358537
Suomi 100
1 43804U 18099AY  25172.59209189  .00006111  00000-0  29804-3 0  9991
2 43804  97.4724 230.8239 0013974 106.0950 254.1824 15.18590306358523
ISAT
1 43879U 18111D   25172.20088288  .00012635  00000-0  43312-3 0  9999
2 43879  97.5951  86.8529 0009852 145.5026 214.6856 15.30286278355472
UWE-4
1 43880U 18111E   25172.21190530  .00009280  00000-0  36091-3 0  9994
2 43880  97.5894  85.2612 0012519 160.4645 199.7075 15.26188712353409
Sparrow
1 43881U 18111F   25172.23874224  .00013793  00000-0  45476-3 0  9997
2 43881  97.6098  89.8147 0006730 177.9810 182.1459 15.31549706355577
Prox-1
1 44339U 19036A   25172.55117808  .00007551  00000-0  93782-3 0  9994
2 44339  23.9978 343.1468 0006730 210.0359 149.9752 14.80176744319796
SONATE
1 44400U 19038Q   25172.34163698  .00532078  13506-3  80801-3 0  9993
2 44400  97.6762 201.0937 0008945 189.5997 170.5113 16.04455318331458
Taurus 1
1 44530U 19059C   25172.73958891  .00003716  00000-0  68775-3 0  9990
2 44530  98.6077 312.7112 0008713   6.5194 353.6119 14.65969910305721
Duchifat 3
1 44854U 19089C   25172.62854289  .00031496  00000-0  59544-3 0  9996
2 44854  36.9427 278.5325 0003480  49.7685 310.3376 15.47512017304816
TO-108
1 44881U 19093C   25172.81827683  .00000632  00000-0  79012-4 0  9991
2 44881  97.7923 248.2123 0013639 185.4237 174.6833 14.85623337297897
